Погода в Ламерье

Россия / Новгородская область     58°09′26″N   32°54′14″E
темп.,
°C
ветер,
м/с
пор.,
м/с
влажн.,
%
обл.,
%
осадки,
мм/ч
давл.,
гПа
погр.,
м
17 апреля, сб
сб1700:00+6всв5156386 0.0 1026549
03:00+5всв5147343 0.0 1026467
06:00+4всв5148039 0.0 1026437
09:00+7всв5127037 0.0 1026511
12:00+12всв695765 0.0 1026842
15:00+14всв684712 0.0 10261130
18:00+13всв59455 0.0 10261034
21:00+8всв413565 0.0 1026522
18 апреля, вс
вс1800:00+6всв414660 0.0 1027483
03:00+4всв413775 0.0 1027376
06:00+3всв413810 0.0 1027393
09:00+7всв511610 0.0 1027720
12:00+11всв68445 0.0 10271483
15:00+13в68375 0.0 10261903
18:00+12в58445 0.0 10261827
21:00+8всв41164100 0.0 1028476
19 апреля, пн
пн1900:00+6всв4127380 0.0 1029469
03:00+4всв411835 0.0 1029333
06:00+3всв4109281 0.0 1029316
09:00+6всв487450 0.0 1029576
12:00+10всв565431 0.0 10281405
15:00+11в564581 0.0 10271887
18:00+10вюв475259 0.0 10271603
21:00+6всв376681 0.0 1027253
20 апреля, вт
вт2000:00+5в396075 0.0 1026384
03:00+3всв4117347 0.0 1025367
06:00+2в4127331 0.0 1024446
09:00+5в5105563 0.0 1022678
12:00+9в68487 0.0 10211248
15:00+11в694498 0.0 10171567
18:00+9в61055100 0.0 10151487
21:00+7в61465100 0.0 10131101
21 апреля, ср
ср2100:00+5в71681100 0.4 10091085
03:00+4в61596100 1.6 10051039
06:00+3в61596100 3.1 1002788
09:00+4в51495100 5.3 1000640
12:00+6в51293100 0.5 9971200
15:00+8вюв4990100 1.3 9961103
18:00+4ююв61296100 1.9 9971174
21:00+2ю61497100 3.9 1000761